Powrót do katalogu

COSMOS 2270

AktywnyMilitariaPO
NORAD 23001·PAYLOAD·🇷🇺 Russia

Wystrzelony Feb 12, 1994 z Plesetsk Cosmodrome

Loading…

Następne Przeloty (najbliższe 24 godziny)

TLE

ŚwieżeSource: Space-Track

Epoka: Sep 14, 2026, 17:25 UTC

1 23001U 94011C   26257.72612082  .00000001  00000-0 -54372-4 0  9998
2 23001  82.5681 256.5745 0006986 346.0920 187.3270 12.62937351501952

Śledź COSMOS 2270 w czasie rzeczywistym z AllMySat

Download on the App Store